Time,TemperatureF,DewpointF,PressureIn,WindDirection,WindDirectionDegrees,WindSpeedMPH,WindSpeedGustMPH,Humidity,HourlyPrecipIn,Conditions,Clouds,dailyrainin,SoftwareType,DateUTC
2013-07-14 00:02:00,72.0,70.0,30.15,NE,39,2.0,2.0,92,0.00,,,0.00,,2013-07-14 04:02:00,
2013-07-14 00:11:00,72.0,69.0,30.16,NE,39,0.0,0.0,91,0.00,,,0.00,,2013-07-14 04:11:00,
2013-07-14 00:22:00,72.0,69.0,30.15,NE,53,0.0,4.0,91,0.00,,,0.00,,2013-07-14 04:22:00,
2013-07-14 00:32:00,72.0,69.0,30.15,NE,56,0.0,3.0,91,0.00,,,0.00,,2013-07-14 04:32:00,
2013-07-14 00:42:00,72.0,70.0,30.15,NE,51,2.0,2.0,92,0.00,,,0.00,,2013-07-14 04:42:00,
2013-07-14 00:53:00,72.0,70.0,30.15,NNE,25,0.0,0.0,92,0.00,,,0.00,,2013-07-14 04:53:00,
2013-07-14 01:02:00,72.0,70.0,30.15,NE,38,0.0,1.0,92,0.00,,,0.00,,2013-07-14 05:02:00,
2013-07-14 01:11:00,71.0,69.0,30.15,NE,34,2.0,2.0,93,0.00,,,0.00,,2013-07-14 05:11:00,
2013-07-14 01:23:00,71.0,69.0,30.15,NE,34,2.0,0.0,94,0.00,,,0.00,,2013-07-14 05:23:00,
2013-07-14 01:32:00,71.0,69.0,30.15,NE,35,0.0,0.0,94,0.00,,,0.00,,2013-07-14 05:32:00,
2013-07-14 01:43:00,71.0,69.0,30.15,NE,34,1.0,0.0,95,0.00,,,0.00,,2013-07-14 05:43:00,
2013-07-14 01:53:00,71.0,69.0,30.14,NE,37,1.0,0.0,95,0.00,,,0.00,,2013-07-14 05:53:00,
2013-07-14 02:01:00,70.0,69.0,30.14,NE,37,0.0,0.0,96,0.00,,,0.00,,2013-07-14 06:01:00,
2013-07-14 02:11:00,70.0,69.0,30.14,ENE,62,0.0,1.0,96,0.00,,,0.00,,2013-07-14 06:11:00,
2013-07-14 02:22:00,69.0,68.0,30.14,NE,51,0.0,0.0,97,0.00,,,0.00,,2013-07-14 06:22:00,
2013-07-14 02:32:00,69.0,68.0,30.14,NE,51,0.0,0.0,97,0.00,,,0.00,,2013-07-14 06:32:00,
2013-07-14 02:42:00,69.0,68.0,30.14,NE,51,0.0,0.0,97,0.00,,,0.00,,2013-07-14 06:42:00,
2013-07-14 02:53:00,69.0,68.0,30.14,NE,49,0.0,0.0,97,0.00,,,0.00,,2013-07-14 06:53:00,
2013-07-14 03:02:00,69.0,68.0,30.14,NE,49,0.0,0.0,97,0.00,,,0.00,,2013-07-14 07:02:00,
2013-07-14 03:12:00,68.0,67.0,30.14,NE,46,0.0,0.0,97,0.00,,,0.00,,2013-07-14 07:12:00,
2013-07-14 03:22:00,68.0,67.0,30.15,NE,46,0.0,0.0,98,0.00,,,0.00,,2013-07-14 07:22:00,
2013-07-14 03:33:00,68.0,67.0,30.15,NE,46,0.0,0.0,98,0.00,,,0.00,,2013-07-14 07:33:00,
2013-07-14 03:43:00,68.0,67.0,30.15,NE,46,0.0,0.0,98,0.00,,,0.00,,2013-07-14 07:43:00,
2013-07-14 03:53:00,68.0,67.0,30.15,NE,48,1.0,0.0,98,0.00,,,0.00,,2013-07-14 07:53:00,
2013-07-14 04:01:00,68.0,67.0,30.15,NE,41,0.0,0.0,98,0.00,,,0.00,,2013-07-14 08:01:00,
2013-07-14 04:11:00,68.0,67.0,30.15,NE,41,0.0,0.0,98,0.00,,,0.00,,2013-07-14 08:11:00,
2013-07-14 04:22:00,68.0,67.0,30.14,NE,41,0.0,0.0,98,0.00,,,0.00,,2013-07-14 08:22:00,
2013-07-14 04:32:00,68.0,67.0,30.14,NE,41,0.0,0.0,98,0.00,,,0.00,,2013-07-14 08:32:00,
2013-07-14 04:42:00,68.0,67.0,30.14,NE,41,0.0,0.0,98,0.00,,,0.00,,2013-07-14 08:42:00,
2013-07-14 04:53:00,68.0,67.0,30.14,NE,41,0.0,0.0,98,0.00,,,0.00,,2013-07-14 08:53:00,
2013-07-14 05:01:00,67.0,67.0,30.14,NE,41,0.0,0.0,99,0.00,,,0.00,,2013-07-14 09:01:00,
2013-07-14 05:11:00,67.0,67.0,30.14,NE,39,0.0,0.0,99,0.00,,,0.00,,2013-07-14 09:11:00,
2013-07-14 05:22:00,67.0,67.0,30.15,NE,51,0.0,0.0,99,0.00,,,0.00,,2013-07-14 09:22:00,
2013-07-14 05:32:00,67.0,67.0,30.15,NE,51,0.0,0.0,99,0.00,,,0.00,,2013-07-14 09:32:00,
2013-07-14 05:42:00,67.0,67.0,30.16,NE,51,0.0,0.0,99,0.00,,,0.00,,2013-07-14 09:42:00,
2013-07-14 05:52:00,67.0,67.0,30.16,NE,51,0.0,0.0,99,0.00,,,0.00,,2013-07-14 09:52:00,
2013-07-14 06:01:00,67.0,67.0,30.16,NE,51,0.0,0.0,99,0.00,,,0.00,,2013-07-14 10:01:00,
2013-07-14 06:12:00,67.0,67.0,30.16,NE,51,0.0,0.0,99,0.00,,,0.00,,2013-07-14 10:12:00,
2013-07-14 06:22:00,67.0,67.0,30.16,NE,51,0.0,0.0,99,0.00,,,0.00,,2013-07-14 10:22:00,
2013-07-14 06:32:00,67.0,67.0,30.16,NE,53,0.0,0.0,99,0.00,,,0.00,,2013-07-14 10:32:00,
2013-07-14 06:42:00,67.0,67.0,30.17,NE,37,1.0,0.0,99,0.00,,,0.00,,2013-07-14 10:42:00,
2013-07-14 06:53:00,68.0,68.0,30.16,NE,39,0.0,0.0,99,0.00,,,0.00,,2013-07-14 10:53:00,
2013-07-14 07:02:00,67.0,67.0,30.17,NE,39,0.0,0.0,99,0.00,,,0.00,,2013-07-14 11:02:00,
2013-07-14 07:11:00,67.0,67.0,30.17,NE,39,0.0,0.0,99,0.00,,,0.00,,2013-07-14 11:11:00,
2013-07-14 07:22:00,68.0,68.0,30.18,NE,39,0.0,0.0,99,0.00,,,0.00,,2013-07-14 11:22:00,
2013-07-14 07:32:00,68.0,68.0,30.18,NE,39,0.0,0.0,99,0.00,,,0.00,,2013-07-14 11:32:00,
2013-07-14 07:43:00,68.0,67.0,30.18,NE,44,0.0,1.0,98,0.00,,,0.00,,2013-07-14 11:43:00,
2013-07-14 07:53:00,68.0,67.0,30.18,ENE,58,2.0,3.0,98,0.00,,,0.00,,2013-07-14 11:53:00,
2013-07-14 08:02:00,69.0,68.0,30.18,NE,53,2.0,0.0,98,0.00,,,0.00,,2013-07-14 12:02:00,
2013-07-14 08:11:00,69.0,68.0,30.19,NE,45,0.0,0.0,98,0.00,,,0.00,,2013-07-14 12:11:00,
2013-07-14 08:33:00,73.0,71.0,30.19,East,101,2.0,3.0,92,0.00,,,0.00,,2013-07-14 12:33:00,
2013-07-14 08:52:00,74.0,71.0,30.20,ESE,110,1.0,1.0,89,0.00,,,0.00,,2013-07-14 12:52:00,
2013-07-14 09:01:00,74.0,71.0,30.21,SSE,150,2.0,2.0,91,0.00,,,0.00,,2013-07-14 13:01:00,
2013-07-14 09:11:00,74.0,71.0,30.21,SE,135,1.0,1.0,91,0.00,,,0.00,,2013-07-14 13:11:00,
2013-07-14 09:22:00,74.0,71.0,30.22,ENE,65,0.0,6.0,91,0.00,,,0.00,,2013-07-14 13:22:00,
2013-07-14 09:32:00,75.0,72.0,30.22,ENE,68,1.0,4.0,90,0.00,,,0.00,,2013-07-14 13:32:00,
2013-07-14 09:42:00,75.0,72.0,30.22,East,94,1.0,2.0,90,0.00,,,0.00,,2013-07-14 13:42:00,
2013-07-14 09:53:00,75.0,72.0,30.22,SE,128,2.0,2.0,90,0.00,,,0.00,,2013-07-14 13:53:00,
2013-07-14 10:02:00,75.0,72.0,30.22,SE,132,2.0,2.0,90,0.00,,,0.00,,2013-07-14 14:02:00,
2013-07-14 10:11:00,76.0,72.0,30.22,SW,219,4.0,4.0,86,0.00,,,0.00,,2013-07-14 14:11:00,
2013-07-14 10:23:00,76.0,72.0,30.23,NNE,18,3.0,3.0,88,0.00,,,0.00,,2013-07-14 14:23:00,
2013-07-14 10:33:00,76.0,72.0,30.23,NE,51,2.0,4.0,87,0.00,,,0.00,,2013-07-14 14:33:00,
2013-07-14 10:43:00,77.0,73.0,30.23,East,89,1.0,1.0,88,0.00,,,0.00,,2013-07-14 14:43:00,
2013-07-14 10:53:00,77.0,73.0,30.23,East,89,1.0,1.0,88,0.00,,,0.00,,2013-07-14 14:53:00,
2013-07-14 11:01:00,79.0,74.0,30.23,ESE,122,2.0,0.0,84,0.00,,,0.00,,2013-07-14 15:01:00,
2013-07-14 11:12:00,80.0,74.0,30.23,ESE,115,1.0,3.0,82,0.00,,,0.00,,2013-07-14 15:12:00,
2013-07-14 11:22:00,81.0,74.0,30.23,South,190,2.0,3.0,80,0.00,,,0.00,,2013-07-14 15:22:00,
2013-07-14 11:32:00,81.0,73.0,30.23,SSE,160,2.0,2.0,77,0.00,,,0.00,,2013-07-14 15:32:00,
2013-07-14 11:42:00,82.0,74.0,30.23,SE,138,1.0,3.0,78,0.00,,,0.00,,2013-07-14 15:42:00,
2013-07-14 11:53:00,83.0,73.0,30.23,South,184,4.0,4.0,73,0.00,,,0.00,,2013-07-14 15:53:00,
2013-07-14 12:01:00,82.0,73.0,30.24,SSW,197,5.0,5.0,75,0.00,,,0.00,,2013-07-14 16:01:00,
2013-07-14 12:11:00,82.0,73.0,30.24,NE,39,3.0,4.0,75,0.00,,,0.00,,2013-07-14 16:11:00,
2013-07-14 12:22:00,82.0,72.0,30.24,ESE,105,3.0,3.0,73,0.00,,,0.00,,2013-07-14 16:22:00,
2013-07-14 12:32:00,82.0,73.0,30.24,SE,136,4.0,4.0,74,0.00,,,0.00,,2013-07-14 16:32:00,
2013-07-14 12:43:00,83.0,73.0,30.24,ESE,121,2.0,4.0,72,0.00,,,0.00,,2013-07-14 16:43:00,
2013-07-14 12:53:00,84.0,75.0,30.24,East,79,2.0,3.0,74,0.00,,,0.00,,2013-07-14 16:53:00,
2013-07-14 13:02:00,84.0,73.0,30.24,ENE,58,4.0,4.0,69,0.00,,,0.00,,2013-07-14 17:02:00,
2013-07-14 13:11:00,85.0,74.0,30.25,ENE,65,2.0,3.0,69,0.00,,,0.00,,2013-07-14 17:11:00,
2013-07-14 13:22:00,85.0,75.0,30.24,East,89,0.0,0.0,71,0.00,,,0.00,,2013-07-14 17:22:00,
2013-07-14 13:32:00,85.0,75.0,30.24,SE,136,2.0,4.0,71,0.00,,,0.00,,2013-07-14 17:32:00,
2013-07-14 13:43:00,85.0,73.0,30.24,West,270,2.0,2.0,68,0.00,,,0.00,,2013-07-14 17:43:00,
2013-07-14 13:53:00,86.0,75.0,30.24,East,79,3.0,3.0,69,0.00,,,0.00,,2013-07-14 17:53:00,
2013-07-14 14:01:00,85.0,73.0,30.24,ESE,117,1.0,3.0,67,0.00,,,0.00,,2013-07-14 18:01:00,
2013-07-14 14:11:00,84.0,73.0,30.24,SE,135,3.0,4.0,70,0.00,,,0.00,,2013-07-14 18:11:00,
2013-07-14 14:22:00,84.0,72.0,30.24,East,93,3.0,3.0,68,0.00,,,0.00,,2013-07-14 18:22:00,
2013-07-14 14:32:00,85.0,73.0,30.24,SSW,201,3.0,4.0,68,0.00,,,0.00,,2013-07-14 18:32:00,
2013-07-14 14:42:00,85.0,75.0,30.24,NE,53,4.0,5.0,71,0.00,,,0.00,,2013-07-14 18:42:00,
2013-07-14 14:52:00,84.0,73.0,30.24,East,100,5.0,5.0,70,0.00,,,0.00,,2013-07-14 18:52:00,
2013-07-14 15:01:00,86.0,73.0,30.24,East,82,1.0,3.0,66,0.00,,,0.00,,2013-07-14 19:01:00,
2013-07-14 15:12:00,84.0,72.0,30.24,ESE,103,6.0,7.0,67,0.00,,,0.00,,2013-07-14 19:12:00,
2013-07-14 15:22:00,83.0,73.0,30.24,East,83,2.0,2.0,73,0.01,,,0.00,,2013-07-14 19:22:00,
2013-07-14 15:32:00,83.0,74.0,30.24,ESE,118,4.0,4.0,74,0.01,,,0.00,,2013-07-14 19:32:00,
2013-07-14 15:43:00,83.0,74.0,30.24,ESE,118,4.0,4.0,74,0.01,,,0.00,,2013-07-14 19:43:00,
2013-07-14 15:53:00,85.0,74.0,30.24,SE,131,2.0,4.0,69,0.01,,,0.00,,2013-07-14 19:53:00,
2013-07-14 16:02:00,85.0,75.0,30.24,East,80,1.0,0.0,71,0.01,,,0.00,,2013-07-14 20:02:00,
2013-07-14 16:11:00,84.0,74.0,30.24,SSE,155,0.0,0.0,71,0.01,,,0.00,,2013-07-14 20:11:00,
2013-07-14 16:22:00,85.0,75.0,30.24,East,94,0.0,0.0,72,0.00,,,0.00,,2013-07-14 20:22:00,
2013-07-14 16:32:00,84.0,75.0,30.24,ESE,121,0.0,0.0,75,0.00,,,0.00,,2013-07-14 20:32:00,
2013-07-14 16:43:00,83.0,76.0,30.23,SE,132,0.0,0.0,79,0.00,,,0.00,,2013-07-14 20:43:00,
2013-07-14 16:53:00,82.0,76.0,30.23,SSE,156,4.0,5.0,81,0.00,,,0.00,,2013-07-14 20:53:00,
2013-07-14 17:02:00,83.0,73.0,30.23,ESE,122,4.0,4.0,72,0.00,,,0.00,,2013-07-14 21:02:00,
2013-07-14 17:11:00,84.0,73.0,30.23,ENE,59,3.0,6.0,70,0.00,,,0.00,,2013-07-14 21:11:00,
2013-07-14 17:22:00,84.0,73.0,30.23,SSW,203,2.0,7.0,69,0.01,,,0.00,,2013-07-14 21:22:00,
2013-07-14 17:32:00,84.0,73.0,30.23,SSW,203,2.0,7.0,69,0.01,,,0.00,,2013-07-14 21:32:00,
2013-07-14 17:43:00,85.0,73.0,30.23,South,187,4.0,4.0,68,0.01,,,0.00,,2013-07-14 21:43:00,
2013-07-14 17:52:00,85.0,72.0,30.23,SSE,156,4.0,4.0,65,0.01,,,0.00,,2013-07-14 21:52:00,
2013-07-14 18:01:00,85.0,72.0,30.23,SSE,156,4.0,4.0,65,0.01,,,0.00,,2013-07-14 22:01:00,
2013-07-14 18:11:00,86.0,72.0,30.24,SE,127,2.0,4.0,63,0.01,,,0.00,,2013-07-14 22:11:00,
2013-07-14 18:22:00,84.0,72.0,30.24,SSE,152,2.0,2.0,67,0.00,,,0.00,,2013-07-14 22:22:00,
2013-07-14 18:32:00,84.0,70.0,30.24,East,80,4.0,0.0,64,0.00,,,0.00,,2013-07-14 22:32:00,
2013-07-14 18:42:00,84.0,71.0,30.24,East,98,3.0,0.0,66,0.00,,,0.00,,2013-07-14 22:42:00,
2013-07-14 18:53:00,84.0,71.0,30.24,SSW,210,1.0,1.0,65,0.00,,,0.00,,2013-07-14 22:53:00,
2013-07-14 19:01:00,84.0,70.0,30.24,SSE,149,2.0,2.0,64,0.00,,,0.00,,2013-07-14 23:01:00,
2013-07-14 19:11:00,84.0,71.0,30.24,SE,129,1.0,2.0,66,0.00,,,0.00,,2013-07-14 23:11:00,
2013-07-14 19:22:00,84.0,71.0,30.24,SE,129,1.0,2.0,66,0.00,,,0.00,,2013-07-14 23:22:00,
2013-07-14 19:32:00,82.0,71.0,30.24,SE,128,2.0,2.0,69,0.00,,,0.00,,2013-07-14 23:32:00,
2013-07-14 19:42:00,83.0,71.0,30.24,ESE,122,1.0,4.0,68,0.00,,,0.00,,2013-07-14 23:42:00,
2013-07-14 19:53:00,83.0,72.0,30.25,SE,127,1.0,1.0,69,0.00,,,0.00,,2013-07-14 23:53:00,
2013-07-14 20:02:00,82.0,71.0,30.25,ESE,117,3.0,4.0,69,0.00,,,0.00,,2013-07-15 00:02:00,
2013-07-14 20:11:00,82.0,72.0,30.25,ENE,76,0.0,0.0,72,0.00,,,0.00,,2013-07-15 00:11:00,
2013-07-14 20:22:00,82.0,73.0,30.25,East,86,1.0,0.0,74,0.00,,,0.00,,2013-07-15 00:22:00,
2013-07-14 20:32:00,81.0,72.0,30.26,ESE,110,2.0,2.0,74,0.00,,,0.00,,2013-07-15 00:32:00,
2013-07-14 20:43:00,81.0,72.0,30.26,ESE,110,2.0,2.0,74,0.00,,,0.00,,2013-07-15 00:43:00,
2013-07-14 20:53:00,80.0,72.0,30.27,ENE,77,0.0,0.0,76,0.00,,,0.00,,2013-07-15 00:53:00,
2013-07-14 21:01:00,80.0,71.0,30.27,East,94,1.0,0.0,75,0.00,,,0.00,,2013-07-15 01:01:00,
2013-07-14 21:11:00,80.0,71.0,30.27,East,94,0.0,0.0,75,0.00,,,0.00,,2013-07-15 01:11:00,
2013-07-14 21:22:00,80.0,71.0,30.27,East,94,0.0,0.0,75,0.00,,,0.00,,2013-07-15 01:22:00,
2013-07-14 21:32:00,79.0,71.0,30.27,ENE,65,0.0,2.0,77,0.00,,,0.00,,2013-07-15 01:32:00,
2013-07-14 21:43:00,79.0,71.0,30.27,ESE,113,0.0,0.0,77,0.00,,,0.00,,2013-07-15 01:43:00,
2013-07-14 21:53:00,79.0,72.0,30.27,ESE,113,0.0,0.0,78,0.00,,,0.00,,2013-07-15 01:53:00,
2013-07-14 22:02:00,78.0,71.0,30.27,ESE,113,0.0,0.0,78,0.00,,,0.00,,2013-07-15 02:02:00,
2013-07-14 22:11:00,78.0,71.0,30.27,ESE,113,0.0,0.0,79,0.00,,,0.00,,2013-07-15 02:11:00,
2013-07-14 22:22:00,78.0,71.0,30.27,ESE,113,0.0,0.0,79,0.00,,,0.00,,2013-07-15 02:22:00,
2013-07-14 22:32:00,77.0,70.0,30.27,ESE,113,0.0,0.0,80,0.00,,,0.00,,2013-07-15 02:32:00,
2013-07-14 22:42:00,77.0,71.0,30.27,ESE,110,0.0,1.0,81,0.00,,,0.00,,2013-07-15 02:42:00,
2013-07-14 22:53:00,77.0,71.0,30.28,ESE,103,1.0,0.0,81,0.00,,,0.00,,2013-07-15 02:53:00,
2013-07-14 23:02:00,77.0,71.0,30.28,East,89,0.0,0.0,81,0.00,,,0.00,,2013-07-15 03:02:00,
2013-07-14 23:11:00,77.0,71.0,30.29,ESE,120,3.0,3.0,81,0.00,,,0.00,,2013-07-15 03:11:00,
2013-07-14 23:22:00,77.0,70.0,30.29,ESE,120,0.0,0.0,80,0.00,,,0.00,,2013-07-15 03:22:00,
2013-07-14 23:32:00,77.0,70.0,30.29,SE,138,0.0,2.0,80,0.00,,,0.00,,2013-07-15 03:32:00,
2013-07-14 23:43:00,77.0,70.0,30.29,ESE,113,0.0,1.0,80,0.00,,,0.00,,2013-07-15 03:43:00,
2013-07-14 23:53:00,76.0,69.0,30.29,ESE,105,0.0,0.0,80,0.00,,,0.00,,2013-07-15 03:53:00,